| time (UTC) | temp C | wind direction | speed KPH | gust KPH | rain 1hr cm | rain 24hr cm | rain mn cm | humidity % | barometer mb |
| 20260507052058 | 8 | 223 | 0.0 | 3.2 | 0.03 | 0.20 | 0.03 | 99 | 1013.1 |
| 20260507051121 | 8 | 223 | 0.0 | 3.2 | 0.03 | 0.20 | 0.03 | 99 | 1012.9 |
| 20260507050040 | 8 | 0.0 | 0.0 | 0.03 | 0.20 | 0.03 | 98 | 1012.8 | |
| 20260507045106 | 8 | 166 | 1.6 | 3.2 | 0.03 | 0.20 | 0.03 | 98 | 1012.6 |
| 20260507044025 | 8 | 155 | 1.6 | 3.2 | 0.00 | 0.18 | 0.00 | 98 | 1012.5 |
| 20260507043050 | 8 | 147 | 0.0 | 1.6 | 0.00 | 0.18 | 0.00 | 98 | 1012.2 |
| 20260507042114 | 8 | 189 | 0.0 | 1.6 | 0.00 | 0.18 | 0.00 | 97 | 1012.3 |
| 20260507041033 | 8 | 161 | 1.6 | 3.2 | 0.00 | 0.18 | 0.00 | 97 | 1012.2 |
| 20260507040057 | 8 | 174 | 1.6 | 3.2 | 0.00 | 0.18 | 0.00 | 98 | 1012.0 |
| 20260507035122 | 8 | 172 | 1.6 | 4.8 | 0.00 | 0.18 | 0.00 | 98 | 1012.0 |
| 20260507034121 | 8 | 222 | 3.2 | 8.0 | 0.00 | 0.18 | 0.00 | 98 | 1011.9 |
| 20260507033105 | 8 | 132 | 0.0 | 1.6 | 0.00 | 0.18 | 0.00 | 98 | 1012.0 |
| 20260507032025 | 8 | 126 | 0.0 | 1.6 | 0.00 | 0.18 | 0.00 | 98 | 1011.9 |
| 20260507031049 | 8 | 120 | 1.6 | 1.6 | 0.00 | 0.18 | 0.00 | 98 | 1011.8 |
| 20260507030113 | 8 | 210 | 0.0 | 3.2 | 0.00 | 0.18 | 0.00 | 97 | 1011.7 |
| 20260507025033 | 8 | 0.0 | 0.0 | 0.00 | 0.18 | 0.00 | 97 | 1011.7 | |
| 20260507024041 | 8 | 317 | 1.6 | 3.2 | 0.00 | 0.18 | 0.00 | 96 | 1011.8 |
| 20260507023105 | 8 | 219 | 3.2 | 3.2 | 0.00 | 0.18 | 0.00 | 96 | 1011.7 |
| 20260507022025 | 8 | 195 | 3.2 | 4.8 | 0.00 | 0.18 | 0.00 | 96 | 1011.6 |
| 20260507021050 | 8 | 196 | 1.6 | 4.8 | 0.00 | 0.18 | 0.00 | 96 | 1011.5 |
| 20260507020113 | 8 | 158 | 1.6 | 3.2 | 0.00 | 0.18 | 0.00 | 96 | 1011.4 |
| 20260507015033 | 8 | 208 | 3.2 | 4.8 | 0.00 | 0.18 | 0.00 | 96 | 1011.3 |
| 20260507014057 | 8 | 205 | 1.6 | 4.8 | 0.00 | 0.18 | 0.00 | 96 | 1011.2 |
| 20260507013121 | 9 | 109 | 3.2 | 8.0 | 0.00 | 0.18 | 0.00 | 95 | 1011.2 |
| 20260507012101 | 9 | 107 | 1.6 | 4.8 | 0.00 | 0.18 | 0.00 | 95 | 1011.1 |
| 20260507011125 | 9 | 206 | 3.2 | 8.0 | 0.00 | 0.18 | 0.00 | 95 | 1010.9 |
| 20260507010025 | 9 | 130 | 3.2 | 4.8 | 0.00 | 0.18 | 0.00 | 95 | 1011.0 |
| 20260507005050 | 10 | 184 | 3.2 | 9.7 | 0.00 | 0.18 | 0.00 | 96 | 1010.9 |
| 20260507004114 | 10 | 195 | 4.8 | 9.7 | 0.00 | 0.18 | 0.00 | 95 | 1010.8 |
| 20260507003033 | 10 | 210 | 4.8 | 9.7 | 0.00 | 0.18 | 0.00 | 95 | 1010.7 |
| 20260507002057 | 10 | 178 | 3.2 | 4.8 | 0.00 | 0.18 | 0.00 | 97 | 1010.7 |
| 20260507001121 | 10 | 191 | 1.6 | 4.8 | 0.00 | 0.18 | 0.00 | 97 | 1010.7 |
| 20260507000041 | 10 | 244 | 1.6 | 4.8 | 0.00 | 0.18 | 0.00 | 98 | 1010.6 |
| 20260506235146 | 10 | 147 | 0.0 | 1.6 | 0.00 | 0.18 | 0.00 | 98 | 1010.6 |
| 20260506234025 | 10 | 211 | 1.6 | 4.8 | 0.00 | 0.18 | 0.00 | 97 | 1010.6 |
| 20260506233109 | 10 | 206 | 1.6 | 4.8 | 0.00 | 0.18 | 0.00 | 96 | 1010.5 |
| 20260506232113 | 10 | 219 | 4.8 | 4.8 | 0.00 | 0.18 | 0.00 | 97 | 1010.5 |
| 20260506231033 | 10 | 201 | 1.6 | 8.0 | 0.00 | 0.18 | 0.00 | 98 | 1010.4 |
| 20260506230058 | 10 | 202 | 1.6 | 4.8 | 0.00 | 0.18 | 0.00 | 98 | 1010.3 |
| 20260506225121 | 10 | 149 | 1.6 | 3.2 | 0.00 | 0.18 | 0.00 | 98 | 1010.3 |
| 20260506224041 | 10 | 185 | 1.6 | 3.2 | 0.00 | 0.18 | 0.00 | 98 | 1010.2 |
| 20260506223106 | 10 | 222 | 1.6 | 4.8 | 0.00 | 0.18 | 0.00 | 99 | 1010.1 |
| 20260506222025 | 10 | 161 | 1.6 | 3.2 | 0.00 | 0.18 | 0.00 | 99 | 1010.1 |
| 20260506221130 | 10 | 215 | 1.6 | 4.8 | 0.00 | 0.18 | 0.00 | 99 | 1010.0 |
| 20260506220058 | 10 | 205 | 0.0 | 1.6 | 0.00 | 0.18 | 0.00 | 99 | 1009.8 |
| 20260506215122 | 10 | 323 | 0.0 | 1.6 | 0.00 | 0.18 | 0.18 | 99 | 1010.0 |
| 20260506214026 | 11 | 0.0 | 0.0 | 0.00 | 0.18 | 0.18 | 99 | 1009.7 | |
| 20260506213048 | 11 | 0.0 | 0.0 | 0.00 | 0.18 | 0.18 | 99 | 1009.8 | |
| 20260506212113 | 11 | 0.0 | 0.0 | 0.00 | 0.18 | 0.18 | 98 | 1009.7 | |
| 20260506211034 | 11 | 224 | 3.2 | 11.3 | 0.00 | 0.18 | 0.18 | 98 | 1009.4 |
| 20260506210057 | 11 | 205 | 3.2 | 4.8 | 0.00 | 0.18 | 0.18 | 99 | 1009.3 |
| 20260506205121 | 11 | 209 | 0.0 | 1.6 | 0.00 | 0.18 | 0.18 | 99 | 1009.3 |
| 20260506204042 | 11 | 175 | 0.0 | 1.6 | 0.00 | 0.18 | 0.18 | 99 | 1009.2 |
| 20260506203105 | 11 | 165 | 0.0 | 3.2 | 0.00 | 0.18 | 0.18 | 99 | 1009.1 |
| 20260506202025 | 11 | 198 | 1.6 | 4.8 | 0.00 | 0.18 | 0.18 | 99 | 1009.1 |
| 20260506201050 | 11 | 222 | 0.0 | 3.2 | 0.00 | 0.18 | 0.18 | 99 | 1008.9 |
| 20260506200153 | 11 | 0.0 | 0.0 | 0.03 | 0.18 | 0.18 | 99 | 1008.8 | |
| 20260506195034 | 11 | 121 | 0.0 | 3.2 | 0.10 | 0.18 | 0.18 | 99 | 1008.8 |
| 20260506194058 | 12 | 222 | 0.0 | 1.6 | 0.18 | 0.18 | 0.18 | 99 | 1008.7 |
| 20260506193121 | 12 | 165 | 1.6 | 1.6 | 0.18 | 0.18 | 0.18 | 99 | 1008.4 |
| 20260506192042 | 12 | 88 | 0.0 | 1.6 | 0.18 | 0.18 | 0.18 | 99 | 1008.3 |
| 20260506191105 | 12 | 0.0 | 0.0 | 0.18 | 0.18 | 0.18 | 98 | 1008.1 | |
| 20260506190045 | 12 | 242 | 3.2 | 8.0 | 0.15 | 0.18 | 0.15 | 96 | 1008.1 |
| 20260506185110 | 12 | 273 | 6.4 | 14.5 | 0.08 | 0.10 | 0.08 | 93 | 1008.0 |
| 20260506184114 | 13 | 231 | 4.8 | 9.7 | 0.00 | 0.05 | 0.00 | 86 | 1007.8 |
| 20260506183113 | 13 | 211 | 4.8 | 8.0 | 0.00 | 0.08 | 0.00 | 82 | 1007.6 |
| 20260506182118 | 13 | 163 | 1.6 | 3.2 | 0.00 | 0.10 | 0.00 | 82 | 1007.4 |
| 20260506181141 | 13 | 192 | 3.2 | 3.2 | 0.00 | 0.15 | 0.00 | 81 | 1007.4 |
| 20260506180026 | 14 | 180 | 4.8 | 8.0 | 0.00 | 0.15 | 0.00 | 81 | 1007.3 |
| 20260506175050 | 14 | 221 | 1.6 | 9.7 | 0.00 | 0.15 | 0.00 | 79 | 1007.3 |
| 20260506174114 | 15 | 225 | 3.2 | 11.3 | 0.00 | 0.15 | 0.00 | 78 | 1007.2 |
| 20260506173034 | 15 | 258 | 4.8 | 11.3 | 0.00 | 0.18 | 0.00 | 76 | 1007.2 |
| 20260506172057 | 15 | 216 | 3.2 | 8.0 | 0.00 | 0.18 | 0.00 | 74 | 1006.9 |
| 20260506171105 | 15 | 225 | 6.4 | 11.3 | 0.00 | 0.20 | 0.00 | 73 | 1007.0 |
| 20260506170026 | 15 | 225 | 9.7 | 17.7 | 0.00 | 0.20 | 0.00 | 72 | 1007.0 |
| 20260506165110 | 15 | 206 | 4.8 | 9.7 | 0.00 | 0.20 | 0.00 | 73 | 1006.9 |
| 20260506164154 | 15 | 221 | 4.8 | 9.7 | 0.00 | 0.20 | 0.00 | 73 | 1006.9 |
| 20260506163034 | 16 | 227 | 4.8 | 9.7 | 0.00 | 0.20 | 0.00 | 71 | 1006.9 |
| 20260506162057 | 16 | 230 | 6.4 | 11.3 | 0.00 | 0.20 | 0.00 | 71 | 1007.0 |
| 20260506161122 | 16 | 239 | 6.4 | 14.5 | 0.00 | 0.20 | 0.00 | 70 | 1007.0 |
| 20260506155107 | 17 | 272 | 8.0 | 16.1 | 0.00 | 0.20 | 0.00 | 67 | 1007.0 |
| 20260506154026 | 18 | 253 | 6.4 | 12.9 | 0.00 | 0.20 | 0.00 | 62 | 1006.8 |
| 20260506153110 | 17 | 248 | 6.4 | 14.5 | 0.00 | 0.20 | 0.00 | 65 | 1006.8 |
| 20260506152114 | 17 | 224 | 8.0 | 16.1 | 0.00 | 0.20 | 0.00 | 65 | 1006.8 |
| 20260506151033 | 17 | 219 | 8.0 | 14.5 | 0.00 | 0.20 | 0.00 | 63 | 1006.8 |
| 20260506150058 | 18 | 233 | 8.0 | 12.9 | 0.00 | 0.20 | 0.00 | 61 | 1006.7 |
| 20260506145121 | 17 | 217 | 4.8 | 11.3 | 0.00 | 0.20 | 0.00 | 63 | 1006.6 |
| 20260506144042 | 17 | 245 | 4.8 | 11.3 | 0.00 | 0.20 | 0.00 | 65 | 1006.5 |
| 20260506143126 | 17 | 208 | 4.8 | 12.9 | 0.00 | 0.20 | 0.00 | 63 | 1006.6 |
| 20260506142045 | 17 | 223 | 6.4 | 12.9 | 0.00 | 0.20 | 0.00 | 61 | 1006.6 |
| 20260506141050 | 17 | 251 | 4.8 | 11.3 | 0.00 | 0.20 | 0.00 | 63 | 1006.5 |
| 20260506140114 | 17 | 217 | 6.4 | 14.5 | 0.00 | 0.20 | 0.00 | 63 | 1006.5 |
| 20260506135035 | 16 | 262 | 6.4 | 12.9 | 0.00 | 0.20 | 0.00 | 65 | 1006.4 |
| 20260506134058 | 17 | 190 | 4.8 | 8.0 | 0.00 | 0.20 | 0.00 | 66 | 1006.6 |
| 20260506133123 | 17 | 234 | 4.8 | 8.0 | 0.00 | 0.20 | 0.00 | 65 | 1006.5 |
| 20260506132042 | 17 | 232 | 4.8 | 8.0 | 0.00 | 0.20 | 0.00 | 65 | 1006.6 |
| 20260506131146 | 17 | 205 | 6.4 | 14.5 | 0.00 | 0.20 | 0.00 | 65 | 1006.6 |
| 20260506130026 | 17 | 213 | 6.4 | 12.9 | 0.00 | 0.20 | 0.00 | 67 | 1006.8 |
| 20260506125050 | 16 | 212 | 4.8 | 9.7 | 0.00 | 0.23 | 0.00 | 69 | 1006.8 |
| 20260506124134 | 16 | 257 | 4.8 | 9.7 | 0.00 | 0.23 | 0.00 | 70 | 1006.7 |
| 20260506123055 | 16 | 230 | 6.4 | 12.9 | 0.00 | 0.23 | 0.00 | 71 | 1006.8 |
| 20260506122042 | 15 | 248 | 4.8 | 8.0 | 0.00 | 0.23 | 0.00 | 74 | 1006.9 |
| 20260506121106 | 15 | 255 | 6.4 | 11.3 | 0.00 | 0.23 | 0.00 | 75 | 1006.8 |
| 20260506120026 | 15 | 249 | 3.2 | 11.3 | 0.00 | 0.23 | 0.00 | 75 | 1007.0 |
| 20260506115050 | 15 | 258 | 4.8 | 11.3 | 0.00 | 0.23 | 0.00 | 75 | 1006.9 |
| 20260506114114 | 15 | 241 | 6.4 | 9.7 | 0.00 | 0.23 | 0.00 | 77 | 1006.9 |
| 20260506113054 | 15 | 218 | 4.8 | 9.7 | 0.00 | 0.23 | 0.00 | 74 | 1007.0 |
| 20260506112058 | 15 | 214 | 3.2 | 8.0 | 0.00 | 0.23 | 0.00 | 75 | 1007.2 |
| 20260506111122 | 15 | 239 | 4.8 | 12.9 | 0.00 | 0.23 | 0.00 | 77 | 1007.3 |
| 20260506110042 | 15 | 211 | 4.8 | 8.0 | 0.00 | 0.23 | 0.00 | 75 | 1007.2 |
| 20260506105107 | 15 | 204 | 6.4 | 12.9 | 0.00 | 0.23 | 0.00 | 76 | 1007.3 |
| 20260506104026 | 14 | 208 | 4.8 | 11.3 | 0.00 | 0.23 | 0.00 | 77 | 1007.2 |
| 20260506103051 | 14 | 193 | 4.8 | 9.7 | 0.00 | 0.23 | 0.00 | 78 | 1007.1 |
| 20260506102114 | 15 | 210 | 4.8 | 9.7 | 0.00 | 0.23 | 0.00 | 78 | 1007.2 |
| 20260506101035 | 13 | 218 | 4.8 | 8.0 | 0.00 | 0.23 | 0.00 | 81 | 1007.1 |
| 20260506100059 | 15 | 229 | 6.4 | 12.9 | 0.00 | 0.23 | 0.00 | 80 | 1007.1 |
| 20260506095122 | 13 | 236 | 4.8 | 11.3 | 0.00 | 0.23 | 0.00 | 84 | 1007.2 |
| 20260506094043 | 13 | 196 | 3.2 | 9.7 | 0.00 | 0.23 | 0.00 | 83 | 1007.1 |
| 20260506093106 | 13 | 215 | 4.8 | 9.7 | 0.00 | 0.23 | 0.00 | 85 | 1007.1 |
| 20260506092026 | 13 | 165 | 4.8 | 11.3 | 0.00 | 0.23 | 0.00 | 84 | 1007.3 |
| 20260506091131 | 13 | 185 | 4.8 | 9.7 | 0.00 | 0.23 | 0.00 | 86 | 1007.1 |
| 20260506090115 | 13 | 188 | 3.2 | 9.7 | 0.00 | 0.23 | 0.00 | 86 | 1007.1 |
| 20260506085034 | 13 | 211 | 6.4 | 16.1 | 0.00 | 0.23 | 0.00 | 87 | 1007.0 |
| 20260506084059 | 13 | 161 | 4.8 | 9.7 | 0.00 | 0.23 | 0.00 | 87 | 1006.8 |
| 20260506083122 | 13 | 189 | 3.2 | 9.7 | 0.00 | 0.23 | 0.00 | 87 | 1006.5 |
| 20260506082043 | 13 | 196 | 6.4 | 12.9 | 0.00 | 0.23 | 0.00 | 86 | 1006.6 |
| 20260506081107 | 13 | 218 | 4.8 | 11.3 | 0.00 | 0.23 | 0.00 | 85 | 1006.5 |
| 20260506073034 | 11 | 188 | 1.6 | 8.0 | 0.00 | 0.23 | 0.00 | 94 | 1006.8 |
| 20260506072059 | 11 | 226 | 3.2 | 4.8 | 0.00 | 0.23 | 0.00 | 94 | 1007.0 |
| 20260506071123 | 11 | 180 | 3.2 | 8.0 | 0.00 | 0.23 | 0.00 | 95 | 1007.0 |
| 20260506062115 | 11 | 88 | 0.0 | 1.6 | 0.00 | 0.23 | 0.00 | 99 | 1006.5 |
| 20260506061034 | 11 | 191 | 0.0 | 4.8 | 0.00 | 0.23 | 0.00 | 99 | 1006.6 |